| time (UTC) | temp F | wind direction | speed knots | gust knots | rain 1hr in | rain 24hr in | rain mn in | humidity % | barometer mb |
| 20260504201558 | 69 | 56 | 1.7 | 8.7 | 0.00 | 0.00 | 0.00 | 36 | 1004.2 |
| 20260504200100 | 69 | 238 | 2.6 | 9.6 | 0.00 | 0.00 | 0.00 | 35 | 1004.3 |
| 20260504194559 | 68 | 329 | 2.6 | 11.3 | 0.00 | 0.00 | 0.00 | 37 | 1004.6 |
| 20260504193058 | 67 | 22 | 2.6 | 7.8 | 0.00 | 0.00 | 0.00 | 38 | 1004.7 |
| 20260504191604 | 66 | 244 | 1.7 | 8.7 | 0.00 | 0.00 | 0.00 | 41 | 1004.6 |
| 20260504190058 | 65 | 309 | 3.5 | 7.8 | 0.00 | 0.00 | 0.00 | 40 | 1004.7 |
| 20260504184603 | 65 | 203 | 2.6 | 11.3 | 0.00 | 0.00 | 0.00 | 41 | 1004.8 |
| 20260504183105 | 66 | 323 | 1.7 | 6.1 | 0.00 | 0.00 | 0.00 | 40 | 1004.9 |
| 20260504181605 | 64 | 0 | 1.7 | 5.2 | 0.00 | 0.00 | 0.00 | 42 | 1004.8 |
| 20260504180121 | 62 | 0 | 0.9 | 4.3 | 0.00 | 0.00 | 0.00 | 45 | 1005.2 |
| 20260504174559 | 62 | 8 | 3.5 | 11.3 | 0.00 | 0.00 | 0.00 | 43 | 1005.2 |
| 20260504173109 | 62 | 345 | 3.5 | 8.7 | 0.00 | 0.00 | 0.00 | 43 | 1005.3 |
| 20260504171612 | 62 | 271 | 2.6 | 13.0 | 0.00 | 0.00 | 0.00 | 42 | 1005.1 |
| 20260504160110 | 62 | 333 | 4.3 | 13.0 | 0.00 | 0.00 | 0.00 | 41 | 1005.1 |
| 20260504150104 | 61 | 11 | 6.1 | 16.5 | 0.00 | 0.00 | 0.00 | 41 | 1005.6 |
| 20260504130110 | 53 | 155 | 0.9 | 1.7 | 0.00 | 0.00 | 0.00 | 62 | 1007.0 |
| 20260504120109 | 49 | 0 | 0.0 | 0.0 | 0.00 | 0.00 | 0.00 | 69 | 1007.7 |
| 20260504100106 | 40 | 0 | 0.0 | 0.0 | 0.00 | 0.00 | 0.00 | 76 | 1007.7 |
| 20260504081558 | 40 | 0 | 0.0 | 0.0 | 0.00 | 0.00 | 0.00 | 75 | 1007.9 |
| 20260504050106 | 40 | 0 | 0.0 | 0.9 | 0.00 | 0.01 | 0.00 | 66 | 1007.7 |
| 20260504044600 | 40 | 336 | 0.9 | 2.6 | 0.00 | 0.01 | 0.00 | 65 | 1007.7 |
| 20260504043100 | 40 | 344 | 0.9 | 2.6 | 0.00 | 0.01 | 0.00 | 68 | 1007.7 |
| 20260504041612 | 39 | 328 | 0.0 | 1.7 | 0.00 | 0.01 | 0.00 | 69 | 1007.6 |
| 20260504034618 | 37 | 0 | 0.0 | 0.0 | 0.00 | 0.01 | 0.01 | 77 | 1007.4 |
| 20260504033057 | 37 | 0 | 0.0 | 0.0 | 0.00 | 0.01 | 0.01 | 77 | 1007.4 |
| 20260504031558 | 37 | 0 | 0.0 | 0.0 | 0.00 | 0.01 | 0.01 | 76 | 1007.4 |
| 20260504030056 | 37 | 342 | 0.0 | 0.9 | 0.00 | 0.01 | 0.01 | 76 | 1007.5 |
| 20260504024559 | 38 | 0 | 0.0 | 0.9 | 0.00 | 0.07 | 0.01 | 74 | 1007.6 |
| 20260504023056 | 39 | 0 | 0.0 | 0.0 | 0.00 | 0.07 | 0.01 | 72 | 1007.6 |
| 20260504021559 | 40 | 0 | 0.0 | 0.0 | 0.00 | 0.07 | 0.01 | 65 | 1007.5 |
| 20260504020124 | 40 | 0 | 0.0 | 0.0 | 0.00 | 0.07 | 0.01 | 65 | 1007.5 |
| 20260504014602 | 41 | 0 | 0.0 | 0.0 | 0.00 | 0.07 | 0.01 | 62 | 1007.6 |
| 20260504013118 | 42 | 0 | 0.0 | 0.0 | 0.00 | 0.07 | 0.01 | 59 | 1007.5 |
| 20260504011557 | 43 | 0 | 0.0 | 0.9 | 0.00 | 0.07 | 0.01 | 56 | 1007.5 |
| 20260504010101 | 43 | 335 | 0.9 | 0.9 | 0.00 | 0.07 | 0.01 | 56 | 1007.3 |
| 20260504004559 | 44 | 0 | 0.0 | 1.7 | 0.00 | 0.08 | 0.01 | 56 | 1007.0 |
| 20260504003057 | 44 | 350 | 0.0 | 2.6 | 0.00 | 0.08 | 0.01 | 54 | 1006.7 |
| 20260504001600 | 45 | 0 | 0.0 | 1.7 | 0.00 | 0.08 | 0.01 | 54 | 1006.7 |
| 20260504000108 | 46 | 337 | 0.0 | 1.7 | 0.00 | 0.08 | 0.01 | 51 | 1006.5 |
| 20260503234559 | 46 | 303 | 0.0 | 2.6 | 0.00 | 0.10 | 0.01 | 49 | 1006.4 |
| 20260503233059 | 47 | 333 | 0.9 | 6.1 | 0.00 | 0.10 | 0.01 | 48 | 1006.1 |
| 20260503231559 | 49 | 335 | 0.9 | 4.3 | 0.00 | 0.10 | 0.01 | 45 | 1006.0 |
| 20260503224606 | 49 | 329 | 1.7 | 6.1 | 0.00 | 0.10 | 0.01 | 45 | 1005.9 |
| 20260503223058 | 49 | 344 | 0.9 | 7.0 | 0.00 | 0.10 | 0.01 | 46 | 1005.8 |
| 20260503221609 | 48 | 3 | 0.9 | 7.8 | 0.00 | 0.10 | 0.01 | 47 | 1005.6 |
| 20260503220100 | 49 | 322 | 1.7 | 7.0 | 0.00 | 0.10 | 0.01 | 45 | 1005.6 |
| 20260503214601 | 49 | 323 | 1.7 | 7.0 | 0.00 | 0.15 | 0.01 | 46 | 1005.5 |
| 20260503213103 | 49 | 219 | 0.9 | 3.5 | 0.00 | 0.15 | 0.01 | 45 | 1005.5 |
| 20260503211559 | 49 | 337 | 2.6 | 7.8 | 0.00 | 0.15 | 0.01 | 46 | 1005.7 |
| 20260503210058 | 49 | 338 | 2.6 | 7.0 | 0.00 | 0.15 | 0.01 | 45 | 1005.3 |
| 20260503204621 | 50 | 347 | 3.5 | 8.7 | 0.00 | 0.15 | 0.01 | 44 | 1005.4 |
| 20260503203102 | 50 | 341 | 2.6 | 7.0 | 0.00 | 0.15 | 0.01 | 46 | 1005.0 |